FW4098 Weather Reports


time (UTC)temp
C
wind
direction
speed
KPH
gust
KPH
rain 1hr
cm
rain 24hr
cm
rain mn
cm
humidity
%
barometer
mb
20260506044501 11 360 9.7 19.3 0.00 0.00 0.00 75 1010.8
20260506043100 12 360 9.7 20.9 0.00 0.00 0.00 74 1010.9
20260506041558 12 360 4.8 19.3 0.00 0.00 0.00 74 1010.8
20260506040055 12 360 8.0 24.1 0.00 0.00 0.00 73 1010.6
20260506034559 12 360 6.4 25.7 0.00 0.00 0.00 73 1010.5
20260506033052 12 360 14.5 29.0 0.00 0.00 0.00 73 1010.2
20260506031554 12 360 14.5 25.7 0.00 0.00 0.00 72 1009.8
20260506030046 13 360 12.9 24.1 0.00 0.00 0.00 72 1010.0
20260506024547 13 360 8.0 25.7 0.00 0.00 0.00 71 1010.1
20260506023043 13 360 17.7 33.8 0.00 0.00 0.00 72 1009.8
20260506021552 13 360 12.9 30.6 0.00 0.00 0.00 73 1009.5
20260506020039 13 360 11.3 27.4 0.00 0.00 0.00 73 1009.3
20260506014536 13 360 14.5 32.2 0.00 0.00 0.00 73 1008.8
20260506013033 13 360 17.7 30.6 0.00 0.00 0.00 74 1008.5
20260506011531 13 360 9.7 24.1 0.00 0.00 0.00 73 1008.1
20260506010036 14 360 12.9 24.1 0.00 0.00 0.00 73 1007.9
20260506004525 14 360 11.3 27.4 0.00 0.00 0.00 73 1007.7
20260506003023 15 360 17.7 27.4 0.00 0.00 0.00 72 1007.6
20260506001518 15 360 12.9 30.6 0.00 0.00 0.00 70 1007.5
20260506000014 16 360 9.7 25.7 0.00 0.00 0.00 69 1006.9
20260505234513 16 360 16.1 29.0 0.00 0.00 0.00 68 1006.8
20260505233007 17 360 14.5 30.6 0.00 0.00 0.00 66 1006.7
20260505231504 18 360 19.3 30.6 0.00 0.00 0.00 65 1006.7
20260505230100 19 360 16.1 29.0 0.00 0.00 0.00 63 1006.6
20260505224556 20 360 12.9 29.0 0.00 0.00 0.00 61 1006.7
20260505223106 21 360 14.5 25.7 0.00 0.00 0.00 60 1006.5
20260505221553 21 360 11.3 25.7 0.00 0.00 0.00 60 1006.6
20260505220054 21 360 9.7 22.5 0.00 0.00 0.00 59 1006.2
20260505214558 21 360 11.3 27.4 0.00 0.00 0.00 58 1006.3
20260505213054 21 360 12.9 29.0 0.00 0.00 0.00 58 1006.5
20260505211603 21 360 11.3 22.5 0.00 0.00 0.00 57 1006.5
20260505210050 21 360 14.5 27.4 0.00 0.00 0.00 58 1006.5
20260505204548 22 360 8.0 20.9 0.00 0.00 0.00 58 1005.9
20260505203108 22 360 9.7 20.9 0.00 0.00 0.00 57 1006.1
20260505201547 22 360 11.3 20.9 0.00 0.00 0.00 56 1006.1
20260505200048 22 360 11.3 29.0 0.00 0.00 0.00 57 1006.1
20260505194546 22 360 16.1 27.4 0.00 0.00 0.00 58 1006.1
20260505193044 22 360 16.1 32.2 0.00 0.00 0.00 57 1006.2
20260505191547 23 360 16.1 30.6 0.00 0.00 0.00 57 1006.1
20260505190045 23 360 16.1 32.2 0.00 0.00 0.00 56 1005.7
20260505184549 23 40 12.9 22.5 0.00 0.00 0.00 56 1005.7
20260505183045 23 49 12.9 22.5 0.00 0.00 0.00 58 1005.6
20260505181539 23 360 11.3 27.4 0.00 0.00 0.00 58 1005.7
20260505180044 23 48 17.7 29.0 0.00 0.00 0.00 58 1005.8
20260505174535 23 55 16.1 29.0 0.00 0.00 0.00 59 1005.0
20260505173033 24 45 11.3 30.6 0.00 0.00 0.00 60 1004.5
20260505171530 25 57 11.3 33.8 0.00 0.00 0.00 58 1004.2
20260505170035 26 69 11.3 25.7 0.00 0.00 0.00 56 1003.8
20260505164530 25 56 14.5 27.4 0.00 0.00 0.00 53 1003.7
20260505163027 26 59 14.5 29.0 0.00 0.00 0.00 44 1003.6
20260505161521 26 61 12.9 30.6 0.00 0.00 0.00 36 1003.4
20260505153013 27 55 9.7 29.0 0.00 0.00 0.00 40 1002.4
20260505151509 26 360 12.9 25.7 0.00 0.00 0.00 50 1002.2
20260505124538 20 360 11.3 19.3 0.00 0.00 0.00 81 1000.8
20260505123036 20 360 9.7 16.1 0.00 0.00 0.00 81 1000.7
20260505121538 20 360 9.7 19.3 0.00 0.00 0.00 81 1000.5
20260505120032 20 360 12.9 20.9 0.00 0.00 0.00 81 1000.5
20260505114531 20 360 12.9 22.5 0.00 0.00 0.00 80 1000.5
20260505113039 20 360 11.3 22.5 0.00 0.00 0.00 80 1000.3
20260505111539 20 360 11.3 19.3 0.00 0.00 0.00 79 1000.3
20260505101526 21 360 11.3 27.4 0.00 0.00 0.00 77 1000.0
20260505100016 21 360 12.9 22.5 0.00 0.00 0.00 76 999.9
20260505094513 22 360 14.5 24.1 0.00 0.00 0.00 75 999.9
20260505093011 22 360 14.5 25.7 0.00 0.00 0.00 75 999.9
20260505091509 22 360 14.5 25.7 0.00 0.00 0.00 74 1000.0
20260505090007 22 360 14.5 27.4 0.00 0.00 0.00 73 1000.1
20260505084521 23 360 17.7 27.4 0.00 0.00 0.00 73 1000.2
20260505083002 23 360 14.5 27.4 0.00 0.00 0.00 72 1000.2
20260505081600 23 360 14.5 27.4 0.00 0.00 0.00 72 1000.4
20260505080058 23 360 14.5 33.8 0.00 0.00 0.00 72 1000.4
20260505074557 23 360 16.1 29.0 0.00 0.00 0.00 71 1000.4
20260505073057 23 360 12.9 25.7 0.00 0.00 0.00 71 1000.5
20260505071558 23 360 14.5 25.7 0.00 0.00 0.00 70 1000.7
20260505064550 24 360 16.1 30.6 0.00 0.00 0.00 70 1001.1
20260505063039 24 360 16.1 32.2 0.00 0.00 0.00 70 1001.4
20260505061553 24 360 11.3 27.4 0.00 0.00 0.00 70 1001.4